Location: Colonia Mina de C?rbuni
(46.1667°N, 22.7167°E)
Time: 17:07:21
(UTC+00:00)

Cosmos 1980 Rocket - Pass Details

Date: 04 February 2023
Orbit: 828 x 850 km, 71.0° (Epoch: 30 March)

Event Time Altitude Azimuth Distance (km) Brightness Sun altitude
Rises 16:44:41 0° 248° (WSW) 3,388 7.2 -11.9°
Reaches altitude 10° 16:47:38 10° 262° (W) 2,461 6.2 -12.4°
Maximum altitude 16:52:03 23° 314° (NW) 1,736 4.3 -13.1°
Drops below altitude 10° 16:56:30 10° 5° (N) 2,482 4.5 -13.9°
Sets 16:59:30 0° 20° (NNE) 3,424 5.1 -14.4°
